Theta_e
307 305 305 305 305 305 305 305 305 305 305 305 306 308 309 312 313 314 311 311 313 318 314 314 315 315 314 313 314 311 315 314 313 315 314 312 314 313 312 316 327 332 331 332 332
305 305 305 304 304 304 304 304 305 305 305 306 306 308 309 313 313 313 311 311 312 314 312 314 314 314 313 314 313 315 314 315 313 313 313 313 313 312 314 315 319 332 332 331 331
305 304 304 304 304 304 304 304 304 305 306 306 306 308 310 313 311 309 311 311 311 313 312 313 314 313 314 312 314 313 316 314 314 313 313 314 313 312 315 317 320 328 334 331 331
303 303 303 304 304 305 305 305 305 305 306 306 306 308 311 312 307 310 311 311 311 311 311 312 313 314 315 315 313 315 313 313 314 313 313 314 313 313 314 316 317 326 330 330 332
304 304 304 305 306 306 306 306 306 306 306 306 306 309 312 307 307 311 310 310 311 311 311 311 313 314 315 313 314 314 314 313 312 312 311 311 313 313 314 313 317 327 330 332 331
306 306 306 306 306 306 307 307 307 307 306 306 306 309 312 307 310 310 310 310 310 311 311 311 312 313 315 314 315 313 313 314 313 313 313 313 312 314 314 320 326 330 332 331 331
306 306 306 306 306 306 307 308 307 307 308 308 306 310 311 308 311 311 310 310 310 310 310 311 312 314 313 313 312 312 314 309 309 309 312 311 312 316 314 316 326 329 326 323 326
305 304 304 306 306 307 308 307 308 309 309 306 308 312 309 310 310 309 310 311 310 310 310 311 313 313 314 310 307 308 309 309 308 309 310 310 311 310 315 321 325 327 324 323 322
302 302 302 303 305 307 308 307 310 307 306 307 311 310 307 309 308 309 310 310 310 312 311 313 311 311 307 307 307 306 309 309 309 310 309 311 310 309 318 323 324 323 324 323 323
302 302 302 303 304 308 307 307 310 309 310 310 310 305 306 306 308 309 310 309 309 308 308 309 305 306 305 306 310 309 309 308 309 309 309 309 309 308 316 322 322 320 322 322 323
302 302 302 302 306 308 307 307 305 303 306 307 307 306 306 309 308 309 310 308 308 306 308 307 305 307 308 306 307 308 308 308 307 309 309 309 308 308 310 322 321 319 320 322 321
302 302 302 302 307 308 307 306 307 307 308 308 307 307 308 309 308 308 309 308 308 308 306 306 306 306 307 308 308 307 310 308 308 309 309 307 307 305 320 320 322 321 320 319 322
302 302 303 303 306 307 306 307 307 308 308 308 310 309 307 308 308 308 308 308 309 305 307 309 308 307 308 306 307 307 309 308 309 309 308 305 307 304 308 318 318 316 320 322 322
303 303 303 303 305 307 306 307 307 308 304 309 308 308 307 308 306 308 308 309 307 308 307 306 307 308 308 305 308 308 307 308 310 309 310 303 309 306 304 309 312 316 317 321 324
303 303 302 304 305 307 306 307 308 306 305 306 307 307 307 308 308 307 309 308 309 309 305 302 307 308 307 305 307 307 306 309 310 309 307 306 307 306 304 305 305 304 305 311 322
303 303 302 304 305 307 306 308 307 305 302 305 308 307 305 306 308 307 305 304 307 303 302 305 304 307 309 307 306 305 305 304 304 306 309 306 306 307 305 305 303 303 305 316 321
302 302 303 305 305 306 307 304 305 305 304 306 305 305 305 306 306 306 306 305 304 303 303 300 302 301 305 304 304 305 304 305 305 309 310 305 306 307 305 305 305 304 303 309 317
302 302 304 308 308 306 307 300 303 303 304 305 305 303 307 306 305 303 304 303 304 301 300 303 303 301 301 307 308 306 305 306 305 309 308 304 307 307 304 305 304 302 301 301 301
302 302 307 308 306 307 299 301 303 300 306 305 302 302 302 304 304 302 301 304 305 302 304 302 300 300 305 306 305 305 308 305 307 306 304 304 304 306 303 302 302 301 300 298 298
302 304 307 307 305 306 299 304 301 305 306 305 303 304 305 302 303 302 302 305 307 304 302 303 304 301 301 301 302 307 305 302 302 305 308 304 302 306 303 300 300 299 299 297 297
303 299 304 306 306 300 301 299 303 305 305 305 304 305 304 303 303 303 302 304 306 306 304 303 302 303 300 300 301 303 304 300 300 304 303 302 302 301 300 298 299 298 297 295 295
300 301 305 306 301 300 302 304 306 304 306 305 305 304 304 305 304 304 302 303 305 304 303 302 301 303 301 299 300 304 304 299 301 300 299 299 301 297 297 299 299 298 297 295 295
298 297 305 304 301 297 300 304 304 304 305 306 306 305 304 305 304 302 302 304 304 304 304 302 299 300 302 302 300 302 303 301 299 300 301 301 300 298 299 299 298 298 297 297 297
297 300 298 298 297 301 302 302 303 304 305 305 305 303 304 303 304 304 304 303 301 303 306 302 300 299 299 300 299 300 300 301 300 301 300 300 300 300 300 299 298 297 297 296 296
296 299 298 301 303 303 304 304 305 304 304 304 303 304 303 304 303 302 302 300 300 303 304 302 303 298 299 299 300 301 301 300 298 300 301 300 299 301 299 297 297 296 294 293 293
299 299 298 297 300 305 305 304 305 304 304 303 304 302 303 303 301 302 301 299 299 300 303 300 302 302 302 301 301 301 300 299 299 300 298 299 300 296 296 294 295 295 292 291 291
299 300 298 298 300 300 299 300 302 302 301 301 301 299 299 299 298 297 297 297 299 299 301 301 302 301 303 299 298 301 301 300 301 300 301 302 299 293 293 294 292 292 289 289 289
Wind_Speed
9 8 8 8 8 9 10 12 12 13 14 15 16 15 15 12 6 4 3 5 7 10 13 14 13 16 3 2 2 3 1 3 4 2 5 5 5 3 5 6 3 4 4 4 26
10 10 10 10 11 12 11 12 13 13 14 15 16 16 17 10 3 5 6 7 9 10 13 9 6 10 4 3 1 3 2 5 6 5 6 9 6 9 5 13 6 6 3 16 26
10 11 12 12 12 12 13 13 13 14 15 16 16 16 15 7 2 4 8 9 9 9 9 7 5 2 3 3 0 1 5 5 9 11 9 10 8 6 5 11 9 5 7 12 21
12 12 12 13 13 14 14 14 15 15 15 15 15 15 10 3 2 5 9 10 10 8 5 6 4 4 3 4 2 4 9 9 9 8 5 5 3 6 7 12 10 8 10 14 15
12 12 13 14 15 15 16 16 16 15 15 14 14 12 3 3 5 6 10 11 7 5 2 1 3 2 3 4 5 5 6 7 9 10 8 5 11 9 7 13 8 7 11 15 13
14 15 16 17 18 18 17 17 16 16 14 13 10 9 2 3 4 6 10 11 7 4 2 2 3 3 3 4 2 4 6 17 12 8 6 7 6 8 11 5 6 6 11 10 10
16 17 18 18 19 19 18 20 19 16 14 10 6 5 1 7 6 10 11 9 7 4 2 4 3 2 0 5 3 5 7 8 3 5 3 5 5 8 6 6 7 7 10 12 8
16 18 18 19 21 21 21 22 20 11 7 4 2 2 5 3 7 8 11 6 7 5 4 4 3 2 1 5 8 5 1 5 7 9 4 4 7 4 5 4 9 11 10 11 9
16 18 20 20 22 21 23 23 8 5 1 0 1 3 7 5 4 8 7 7 8 7 3 5 2 1 4 4 5 5 5 5 9 2 4 2 6 5 4 4 5 5 11 9 6
16 18 21 22 23 18 21 14 5 2 1 1 1 2 1 5 9 8 7 6 2 2 3 5 4 3 3 5 4 7 5 5 6 7 5 5 8 7 3 0 5 6 5 6 6
18 19 21 22 21 19 22 4 7 3 4 3 1 3 4 12 4 2 7 3 3 8 4 4 6 4 8 4 6 7 4 6 6 4 6 4 5 8 5 3 2 3 3 4 6
18 20 21 22 17 17 13 7 3 2 7 3 4 5 4 3 4 3 12 4 5 3 7 5 2 4 7 5 5 5 4 7 9 2 1 6 5 6 4 3 3 2 5 6 4
19 21 21 21 10 11 16 7 4 2 1 6 3 2 2 3 4 5 5 0 4 5 4 2 4 7 5 4 8 4 3 5 5 8 0 4 7 8 4 5 3 5 5 6 7
19 20 22 20 2 8 4 7 3 1 5 3 1 1 1 2 2 2 2 1 4 4 5 4 3 6 7 3 3 5 2 5 5 5 3 7 3 7 8 9 9 9 7 4 8
18 20 19 14 7 3 6 7 3 1 4 3 2 1 1 2 3 1 2 3 1 3 4 4 6 6 5 7 1 8 5 3 2 3 3 11 5 7 5 9 9 10 10 8 6
18 19 18 8 6 5 9 6 0 6 5 5 2 4 5 4 4 6 5 5 1 1 1 5 4 1 3 7 2 11 3 4 4 3 5 5 3 6 5 5 7 9 12 11 5
18 18 13 9 6 9 8 2 5 4 4 7 4 5 2 4 5 5 4 6 4 6 7 7 3 5 2 7 7 11 7 4 6 5 2 5 4 3 5 3 3 8 10 10 8
17 16 10 5 8 8 4 5 2 2 1 3 4 4 3 4 2 6 3 4 4 4 2 3 9 7 6 2 3 4 3 3 1 2 4 7 4 2 4 4 5 4 5 8 10
16 9 4 6 6 5 5 3 6 4 2 5 5 4 4 3 3 6 2 1 1 1 2 4 5 4 2 2 2 6 5 1 3 1 1 4 5 3 8 11 12 12 15 14 10
12 6 2 5 4 2 4 5 3 2 2 1 1 2 3 5 6 6 3 1 1 1 2 0 4 1 5 2 3 4 1 4 4 4 4 4 4 3 9 16 15 16 15 14 13
5 3 2 4 3 4 2 5 4 2 1 1 1 3 1 3 3 4 3 2 2 1 3 2 2 6 4 4 2 5 3 5 4 2 2 3 4 2 7 7 13 14 13 11 13
1 1 3 3 3 2 2 4 2 3 1 1 2 2 2 1 3 2 2 1 4 0 3 1 3 4 5 3 2 2 2 4 4 4 1 2 4 5 5 9 15 16 15 12 9
1 2 3 1 2 1 5 4 3 2 1 1 2 2 0 1 2 2 2 1 3 3 1 2 2 5 7 3 1 2 1 3 4 3 4 4 4 6 13 17 16 17 17 15 15
2 2 3 3 1 4 2 3 3 1 2 1 1 1 1 1 1 3 2 2 5 3 1 3 2 7 6 7 1 4 2 4 4 2 4 6 7 11 13 13 13 14 13 12 14
1 3 2 2 2 3 1 2 1 1 1 0 1 1 1 1 3 3 1 5 4 2 3 4 5 5 6 9 4 7 10 7 9 7 7 3 2 5 6 9 9 6 12 17 18
4 3 1 1 0 4 2 4 5 2 2 2 3 2 2 4 6 4 1 2 6 3 2 3 3 1 5 9 4 7 9 8 4 1 8 4 4 3 6 6 10 8 13 16 17
4 3 3 1 2 4 4 5 5 4 1 0 4 3 2 6 3 6 7 6 6 3 2 1 2 1 5 3 7 6 2 2 5 6 3 2 4 8 9 13 14 7 10 13 16
Wind_Direction
4 358 349 345 340 337 339 343 346 346 346 349 350 349 346 336 322 319 337 347 350 342 337 343 360 4 48 58 88 104 66 249 249 236 248 284 290 264 276 257 253 248 255 306 147
0 353 347 343 339 334 334 338 339 341 344 344 346 346 346 340 306 301 347 354 353 342 339 354 341 355 9 18 29 121 180 237 216 232 255 267 258 285 303 294 278 253 260 153 150
357 352 348 346 345 344 339 336 336 338 340 343 343 345 347 348 10 273 348 347 338 325 331 339 341 43 360 2 276 210 227 228 260 249 249 268 277 252 252 284 241 222 216 184 167
7 4 1 356 351 346 339 335 332 331 332 337 342 345 342 8 1 339 335 328 326 318 317 351 8 19 352 329 299 293 243 246 267 246 254 229 250 278 211 249 266 264 211 185 184
8 5 0 355 347 341 334 330 326 324 322 326 334 345 353 6 262 320 341 332 330 321 313 357 22 1 331 301 302 212 269 266 260 252 239 239 260 244 271 261 268 268 172 189 188
8 3 357 352 347 338 333 330 322 315 310 312 322 340 24 330 300 293 315 331 319 296 267 191 221 202 262 258 201 251 281 287 291 280 235 208 240 161 253 324 284 169 187 193 182
359 355 349 344 343 338 332 328 318 306 297 298 310 342 68 236 324 317 321 322 322 303 259 254 204 134 146 287 280 281 307 323 294 318 276 169 297 235 273 310 265 207 104 55 99
359 354 345 342 341 338 334 331 321 309 288 274 309 354 241 262 315 339 345 345 340 325 260 285 183 153 185 307 336 332 49 352 301 348 351 134 267 271 313 317 255 145 114 105 62
357 352 347 343 341 337 336 332 335 352 11 282 146 81 284 320 331 335 345 318 338 32 81 106 80 55 3 4 350 9 292 300 316 15 344 201 280 266 348 305 200 158 133 134 139
352 350 347 346 340 338 340 331 333 6 17 93 119 64 321 310 314 318 341 343 3 12 35 45 43 30 27 42 312 295 311 295 282 306 342 289 272 290 310 98 221 145 135 152 191
348 348 348 348 346 348 348 353 14 356 18 265 238 230 311 324 303 342 347 2 26 54 15 350 44 324 297 243 239 268 252 274 275 269 344 347 293 303 330 12 179 160 134 172 154
347 347 348 349 349 2 11 66 72 270 316 323 261 283 277 360 321 333 358 51 48 4 338 11 319 299 289 286 274 299 292 319 295 279 334 344 358 342 30 17 331 297 149 191 163
347 346 347 348 354 13 53 49 359 323 233 302 231 279 314 36 311 289 21 67 71 11 15 182 273 325 337 323 347 339 312 313 266 319 138 340 21 3 337 341 24 3 16 161 164
344 344 347 349 28 5 63 6 348 310 36 287 255 158 134 127 280 266 32 60 17 347 334 242 310 336 312 338 32 317 85 295 309 24 16 16 23 6 346 22 25 360 344 333 144
341 342 347 355 337 29 335 343 339 19 7 313 319 332 38 85 305 351 6 31 343 316 51 280 346 348 339 305 360 257 346 293 354 36 20 357 69 302 356 9 358 348 346 329 174
338 339 341 344 345 349 335 333 181 43 265 353 319 351 9 8 349 322 22 34 104 50 333 261 284 283 272 310 274 296 31 36 47 47 40 323 56 342 3 337 331 336 358 3 1
334 337 337 338 335 333 332 4 32 121 330 326 336 10 327 326 344 40 22 14 36 23 3 327 338 322 1 350 355 12 30 3 19 15 249 336 42 243 329 357 327 344 355 2 360
333 332 330 353 337 335 334 49 158 244 302 332 333 326 356 5 353 342 40 30 32 65 45 41 333 9 350 63 293 349 46 106 30 1 292 337 22 330 342 18 32 54 2 355 360
332 326 338 349 353 344 63 58 216 196 255 341 330 26 328 14 344 13 58 124 199 76 56 358 288 319 39 334 70 322 40 260 103 178 54 308 318 15 31 19 2 1 4 351 343
329 332 345 351 347 23 75 239 242 222 286 41 295 45 326 323 357 13 0 288 158 121 115 6 301 317 293 37 32 78 229 26 12 24 356 324 300 250 14 2 354 354 344 337 338
324 19 345 343 342 53 181 230 280 255 168 116 273 305 9 314 335 308 323 333 348 66 86 109 122 291 355 34 289 357 22 49 111 96 112 320 287 3 22 342 349 345 335 324 348
72 2 357 353 27 60 231 201 291 278 42 119 129 196 158 318 300 302 304 294 4 61 31 27 152 292 273 295 293 172 127 113 107 294 101 174 274 100 25 28 13 1 352 3 7
200 262 23 37 229 276 293 288 234 274 250 163 163 192 174 222 316 228 301 14 38 35 76 159 330 327 349 359 5 58 107 124 109 98 207 158 254 14 25 28 20 12 12 15 17
92 335 332 54 27 151 240 260 288 20 292 208 203 120 131 266 202 287 295 307 330 253 98 126 177 182 215 240 129 298 224 201 142 157 207 221 270 17 1 5 2 3 1 8 13
52 244 168 266 249 182 210 269 218 259 223 216 21 332 149 271 310 249 260 319 312 313 129 140 223 180 257 274 238 256 258 220 191 189 192 268 135 8 353 345 336 344 1 6 6
165 148 25 267 165 147 213 243 201 206 202 222 161 182 202 202 205 276 2 229 248 344 54 17 284 184 260 263 269 257 267 256 221 232 267 217 161 37 320 320 351 1 6 1 358
185 132 119 202 166 127 219 223 206 151 154 257 151 128 262 255 235 232 219 225 232 202 158 251 199 2 266 335 309 296 12 97 111 58 328 52 32 2 346 340 333 11 9 356 351